Regional Weather Roundup
Issued by NWS

Home | Current Version | Previous Version | Graphics & Text | Print | Product List | Glossary On
Versions: 1 2 3 4 5 6 7 8 9 10 11 12 13 14 15 16 17 18 19 20 21 22 23 24 25 26 27
000
ASUS45 KCYS 202110
RWRWY

WYOMING REGIONAL WEATHER ROUNDUP
NATIONAL WEATHER SERVICE CHEYENNE WY
200 PM MST TUE FEB 20 2018

NOTE:  "FAIR" INDICATES FEW OR NO CLOUDS BELOW 12,000 FEET
WITH NO SIGNIFICANT WEATHER AND/OR OBSTRUCTIONS TO VISIBILITY.

WYZ001-202200-
YELLOWSTONE NATIONAL PARK

CITY           SKY/WX    TMP DP  RH WIND       PRES   REMARKS
LK YELLOWSTONE   N/A      3  -4  72 MISG      29.79R
W YELLOWSTONE  NOT AVBL

$$
WYZ002>013-054>058-071-098>099-202200-
NORTHERN WYOMING

CITY           SKY/WX    TMP DP  RH WIND       PRES   REMARKS
JACKSON        CLOUDY    12  -1  56 S17       29.89R WCI  -5
CODY           FAIR      16  -6  37 CALM      29.94S
GREYBULL       FAIR       0  -7  72 CALM      30.06F
WORLAND        FAIR       3  -8  60 NE3       30.03F
SHERIDAN       FAIR       8  -6  52 CALM      30.03R
BUFFALO        FAIR       6  -8  52 S6        29.95R WCI  -4
GILLETTE       FAIR       4  -7  60 SW7       30.00S WCI  -8
HULETT         FAIR       5  -8  56 MISG      30.02S
NEWCASTLE      FAIR       5  -8  56 NW10      30.04S WCI -10

$$
WYZ014>020-022>026-101>103-202200-
CENTRAL WYOMING

CITY           SKY/WX    TMP DP  RH WIND       PRES   REMARKS
BIG PINEY      CLOUDY     9  -1  64 E3        29.87S
PINEDALE       MOCLDY    10  -4  52 CALM      29.87S
DUBOIS           N/A    N/A N/A N/A MISG        N/A
LANDER         FAIR       2  -5  72 CALM      29.89S
RIVERTON       FAIR       0  -9  65 E5        29.91S WCI -10
CASPER         FAIR      10   1  67 SW16      29.92S WCI  -7
DOUGLAS        FAIR       0  -7  72 SE5       29.99R WCI -10

$$
WYZ021-027>030-104>119-202200-
SOUTHERN WYOMING

CITY           SKY/WX    TMP DP  RH WIND       PRES   REMARKS
EVANSTON       LGT SNOW  12   4  70 W16       29.90R WCI  -5
FORT BRIDGER   MOCLDY    14   4  64 W14       29.92R WCI   0
ROCK SPRINGS   FAIR      13   1  59 W12       29.91R WCI  -1
DIXON          MOCLDY    15   5  63 W6        29.97R WCI   7
RAWLINS        FAIR      12   2  64 W20G29    29.87R WCI  -6
SARATOGA       FAIR      14   1  57 W17       29.90R HAZE    WCI  -3
LARAMIE        FAIR       6  -3  66 NE5       29.81R WCI  -3
CHEYENNE       FAIR      21   4  47 NW10      29.87R WCI  10
TORRINGTON     FAIR      12  -2  53 NW3       30.05R
PINE BLUFFS    FAIR       7  -2  66 SW7       29.97S WCI  -5

$$




USA.gov is the U.S. government's official web portal to all federal, state and local government web resources and services.